Weather in Mampikony

Madagascar     16°07′49″S   47°38′12″E
temp.,
°C
wind,
m/s
gust,
m/s
humid.,
%
clouds,
%
prec.,
mm/h
press.,
hPa
HPBL,
m
17 april, sat
sat1700:00+23e119090 0.8 101324
03:00+22e119248 2.3 101115
06:00+22e119297 0.0 101212
09:00+27nne227617 0.0 1014524
12:00+30nw216063 0.0 10121387
15:00+30wsw215997 0.8 10101264
18:00+25s118198 1.4 101211
21:00+23ese239065 4.9 101547
18 april, sun
sun1800:00+22ese3108923 3.1 1015356
03:00+22ese4118593 4.0 1014519
06:00+22ese5128062 0.0 1015623
09:00+25ese5116849 0.0 10171129
12:00+28ese6105918 0.0 10161363
15:00+26ese6136692 0.0 10151213
18:00+23ese6146777 0.0 10161000
21:00+23ese6147141 0.0 1017926
19 april, mon
mon1900:00+22ese5127292 0.0 1017758
03:00+21se41074100 0.0 1016658
06:00+21ese41176100 0.0 1016687
09:00+25ese51165100 0.0 10171015
12:00+28ese695795 0.0 10151273
15:00+28ese685836 0.0 10131340
18:00+24ese5116752 0.0 1015769
21:00+24ese4116889 0.0 1017771
20 april, tue
tue2000:00+23ese396998 0.0 1016609
03:00+23ese41069100 0.0 1014592
06:00+22ese3873100 0.0 1015478
09:00+26ese586218 0.0 1016939
12:00+29ese565322 0.0 10141521
15:00+29ese565314 0.0 10121584
18:00+25ese3769100 0.0 1013203
21:00+24ese396976 0.0 1015526
21 april, wed
wed2100:00+23se410717 0.0 1014639
03:00+22se387293 0.0 1013395
06:00+21ese2478100 0.0 1015123
09:00+26ese5106168 0.0 10151151
12:00+30ese6951100 0.0 10131656
15:00+28ese5860100 0.0 10121143
18:00+25ese4116699 0.0 1013595
21:00+24ese41070100 0.0 1015533